Regional Weather Roundup
Issued by NWS

Home | Current Version | Previous Version | Text Only | Print | Product List | Glossary Off
Versions: 1 2 3 4 5 6 7 8 9 10 11 12 13 14 15 16 17 18 19 20 21 22 23 24 25 26 27 28

000
ASUS45 KTFX 291910
RWRMT
MONTANA REGIONAL WEATHER ROUNDUP
NATIONAL WEATHER SERVICE GREAT FALLS MT
100 PM MDT FRI APR 29 2016

NOTE: "FAIR" INDICATES FEW OR NO CLOUDS BELOW 12000 FEET WITH NO
SIGNIFICANT WEATHER AND/OR OBSTRUCTIONS TO VISIBILITY.

MTZ001>007-043-292000-
WEST OF THE DIVIDE

CITY           SKY/WX    TMP DP  RH WIND       PRES   REMARKS
KALISPELL      CLOUDY    49  32  52 E3        29.92S
MISSOULA       CLOUDY    50  32  50 VRB3      29.91F
BUTTE          CLOUDY    42  26  53 CALM      29.89F
MULLAN PASS    FLURRIES  34  28  79 CALM      29.90S
ANACONDA         N/A     46  28  49 SE7       29.88F
DEER LODGE       N/A     46  28  49 CALM      29.90F
EUREKA           N/A     48  34  57 S6        29.94S
HAMILTON         N/A     43  30  61 CALM      29.92F
LIBBY            N/A     48  34  57 CALM      29.94F
$$

MTZ008-052>055-292000-
SOUTHWEST MONTANA

CITY           SKY/WX    TMP DP  RH WIND       PRES   REMARKS
BOZEMAN        SUNNY     50  32  50 VRB5      29.90F
DILLON         MOSUNNY   46  28  49 VRB5      29.87F
ENNIS          CLOUDY    46  30  53 NW8       29.92F
$$

MTZ009-010-012-014-046-048-049-054-292000-
EAST SLOPES AND CENTRAL MONTANA

CITY           SKY/WX    TMP DP  RH WIND       PRES   REMARKS
CUT BANK       CLOUDY    42  34  73 SE9       29.96F
GREAT FALLS    CLOUDY    48  28  46 CALM      29.95F
HELENA         CLOUDY    51  27  39 NE7       29.91F
CHOTEAU          N/A     45  32  61 E6        29.96S
CONRAD           N/A     46  40  79 E7        29.98F
$$

MTZ011-013-016-021-045-047-050-051-292000-
NORTH CENTRAL MONTANA

CITY           SKY/WX    TMP DP  RH WIND       PRES   REMARKS
HAVRE          CLOUDY    53  37  54 E16G24    30.01F
N BAR RANCH    CLOUDY    43  34  70 E10       30.02F
CHINOOK          N/A     52  37  58 E17       30.04F
$$

MTZ017>020-022>027-061-062-292000-
NORTHEAST MONTANA

CITY           SKY/WX    TMP DP  RH WIND       PRES   REMARKS
GLASGOW        CLOUDY    53  31  42 SE15      30.08F
JORDAN           N/A     50  37  61 SE15      30.05F
SIDNEY         PTSUNNY   55  30  38 E8        30.13S
WOLF POINT     CLOUDY    56  27  32 SE9       30.10F
PLENTYWOOD       N/A     55  25  30 SE16G25   30.13F
POPLAR           N/A     54  27  35 E13       30.10F
$$

MTZ028>42-056>058-292000-
SOUTHCENTRAL AND SOUTHEAST MONTANA

CITY           SKY/WX    TMP DP  RH WIND       PRES   REMARKS
BAKER          CLOUDY    51  34  52 SE17      30.09F
BILLINGS       CLOUDY    48  37  65 N7        29.99F
LIVINGSTON     CLOUDY    43  30  60 E13       29.94F
MILES CITY     PTSUNNY   52  35  52 E8        30.04F
FORSYTH          N/A     52  32  46 E7G18     30.02F
LAUREL           N/A     46  28  49 NE2       29.97F
ROUNDUP          N/A     48  33  56 E6        29.91F
$$

REGIONAL REPORTS...DAKOTAS

CITY           SKY/WX    TMP DP  RH WIND       PRES   REMARKS
WILLISTON      SUNNY     56  26  31 S9G16     30.13F
MINOT          SUNNY     63  22  20 E12G17    30.16F
DICKINSON      CLOUDY    53  29  39 SE8G21    30.09F
BEACH          CLOUDY    52  30  43 SE10G16   30.13S
CROSBY           N/A     57  25  28 E14G21    30.17F
TIOGA            N/A     55  21  26 SE15G21   30.18F
WATFORD CITY     N/A     55  25  30 E14       30.12F
BISMARCK       SUNNY     58  31  35 E15G25    30.11F
GRAND FORKS    MOSUNNY   61  32  33 NE12      30.16F
FARGO          SUNNY     63  32  31 NE13G21   30.10F
BUFFALO SD       N/A     48  31  51 E17       30.02F
RAPID CITY     CLOUDY    43  35  73 NE8       30.08S
$$

REGIONAL REPORTS...WYOMING/IDAHO/WASHINGTON

CITY           SKY/WX    TMP DP  RH WIND       PRES   REMARKS
GILLETTE       CLOUDY    45  32  60 E9        30.00F
SHERIDAN       CLOUDY    44  29  55 CALM      29.98F
BUFFALO WY       N/A    N/A N/A N/A MISG      29.98F
CODY           CLOUDY    41  30  65 CALM      29.94F
YELLOWSTONE LA   N/A     41  23  48 E6        29.90F
IDAHO FALLS    CLOUDY    50  35  56 W12G17    29.88F
SALMON         PTSUNNY   46  36  66 CALM      29.87F
BOISE          PTSUNNY   60  38  43 W8G17     29.89F
SPOKANE        LGT RAIN  48  42  80 E6        29.95S
$$

REGIONAL REPORTS...ALBERTA

CITY           SKY/WX    TMP DP  RH WIND       PRES   REMARKS
EDMONTON       SUNNY     63  32  31 S22       29.95S
CALGARY        CLOUDY    48  30  49 SE16G25   29.95S
LETHBRIDGE     CLOUDY    46  36  66 S13G29    29.97F
MEDICINE HAT   PTSUNNY   52  34  50 SE15G22   30.02F
$$

REGIONAL REPORTS...SASKATCHEWAN

CITY           SKY/WX    TMP DP  RH WIND       PRES   REMARKS
SWIFT CURRENT  CLOUDY    57  23  26 SE20G35   30.07F
REGINA         MOSUNNY   61  12  15 SE15G29   30.16F
SASKATOON      SUNNY     63  19  19 SE20G26   30.17S
$$




USA.gov is the U.S. government's official web portal to all federal, state and local government web resources and services.